Terug naar catalogus

OPS 9344

IDSCS 22

LostMilitairMEO
NORAD 3287·PAYLOAD·🇺🇸 United States

Gelanceerd Jun 13, 1968 vanaf Cape Canaveral Space Force Station

Loading…

Volgende Passages (komende 24 uur)

TLE

VerouderdSource: Space-Track

Epoch: Jul 24, 2026, 07:53 UTC

1  3287U 68050D   26205.32852354 -.00000119  00000-0  00000+0 0  9997
2  3287   7.2593  51.9041 0025961 147.8376 112.3951  1.07640896227663

Volg OPS 9344 in realtime met AllMySat

Download on the App Store